www.pogodaiklimat.ru

Погода и климат >> Архив погоды >> Россия >> Магаданская область >> Балыгычан


ПОГОДА в Балыгычане

  • Прогноз погоды в Балыгычане
  • Монитор погоды в Балыгычане

АРХИВ ПОГОДЫ в Балыгычане

Время (UTC), дата Ветер
(напр.,м/с)
 
Видим.   Явления Облачность Т
(С)
Тd
(С)
f
(%)
Тe
(С)
Тes
(С)
Комфортность P
(гПа)
Po
(гПа)
Тmin
(С)
Tmax
(С)
R
(мм)
R24
(мм)
S
(см)
21 9.06 ЮВ 2 50 км 9/9 1000 м
[Sc]
+13.2 +4.9 57 +13 +13 1016.6 999.1 +5.3
00 10.06 ЮВ 3 50 км 8/3 1000 м
[Sc Ac trans Ci fib]
+17.1 +4.1 42 +17 +20 1016.0 998.7
03 10.06 Ю 3 50 км 10/6 1000 м
[Cb cap Ci fib]
+19.0 +3.2 35 +19 +19 1014.4 997.3
06 10.06 Ю 3 50 км 4/4 1000 м
[Cu Sc]
+19.5 +2.4 32 +20 +23 1014.4 997.3
09 10.06 ЮВ 2 50 км 3/3 1000 м
[Sc diur, vesp]
+18.8 +2.6 34 +20 +20 1014.4 997.3 +19.9
12 10.06 ЮВ 2 50 км 3/1 1000 м
[Sc diur, vesp Ci fib]
+11.6 +4.8 63 +11 +11 1014.9 997.3
15 10.06 СЗ 1 50 км 4/3 1000 м
[Sc Ci fib]
+8.4 +4.0 74 +8 +8 1015.1 997.3
18 10.06 ЮВ 2 50 км 5/5 1000 м
[Sc]
+12.3 +3.6 55 +12 +12 1015.3 997.8
21 10.06 ЮВ 4
{10}
50 км 4/4
[Sc]
+14.4 +3.3 47 +13 +15 1015.2 997.8 +7.4
00 11.06 ЮВ 5-10
{10}
50 км ясно +18.4 +3.1 36 +18 +24 1014.5 997.3
03 11.06 ЮВ 5
{10}
50 км 1/1 1000 м
[Cu hum]
+20.7 +2.0 29 +21 +27 комфорт 1013.0 996.0
06 11.06 ЮВ 4 50 км 3/0 1000 м
[Ci fib]
+21.9 +1.0 25 +21 +25 комфорт 1011.6 994.7
09 11.06 Ю 2 50 км 6/1 1000 м
[Cb cap Ci fib]
+20.8 +1.6 28 +22 +22 комфорт 1011.7 994.7 +22.1
12 11.06 Ю 3 50 км 8/0
[Ci fib]
+15.3 +3.1 44 +15 +15 1012.0 994.7
15 11.06 Ю 5
{10}
50 км 3/0
[Ci fib]
+13.5 +0.2 40 +12 +12 1012.1 994.7
18 11.06 Ю 5
{10}
50 км 3/0
[Ci fib]
+13.2 +0.2 41 +12 +12 1013.5 996.0
21 11.06 Ю 6
{10}
50 км 3/0
[Ci fib]
+16.1 +2.3 39 +15 +17 1012.6 995.3 +12.5
00 12.06 Ю 5-10
{10}
50 км 1/0
[Ci fib]
+20.4 +2.2 30 +21 +26 комфорт 1011.7 994.7
03 12.06 Ю 5-12
{12}
50 км ясно +22.7 +0.5 23 +22 +28 комфорт 1010.1 993.3
06 12.06 Ю 4
{12}
50 км 9/0
[Ci]
+23.1 +0.2 22 +22 +23 комфорт 1008.8 992.0
09 12.06 Ю 4 50 км 8/0
[Ci fib]
+21.9 +0.4 24 +21 +22 комфорт 1008.9 992.0 +23.2
12 12.06 Ю 1 50 км 10/0
[Ci]
+12.4 +6.0 65 +13 +13 1010.7 993.3
15 12.06 Ю 2 50 км 10/0
[Ci fib]
+6.7 +4.4 85 +4 +4 1011.1 993.3
18 12.06 Ю 2 50 км 8/0
[Ci fib]
+11.6 +3.1 56 +11 +11 1012.2 994.7
21 12.06 Ю 5 50 км 4/0
[Ci fib]
+16.7 +4.0 43 +16 +19 1011.8 994.6 +6.1
00 13.06 Ю 5
{10}
50 км 4/0
[Ci fib]
+20.6 +1.4 28 +21 +24 комфорт 1011.7 994.7
03 13.06 Ю 4
{10}
50 км 8/0
[Ci fib]
+21.8 +0.3 24 +21 +24 комфорт 1011.6 994.7
06 13.06 Ю 4
{10}
50 км 10/0
[Cs]
+22.6 -0.8 21 +22 +22 комфорт 1010.2 993.3
09 13.06 Ю 3 50 км 10/0
[Ac trans Cs]
+20.6 +0.9 27 +21 +21 комфорт 1010.3 993.3 +23.4
12 13.06 Ю 2 50 км 10/0
[Ac trans Cs]
+14.5 +2.7 45 +14 +14 1010.6 993.3
15 13.06 Ю 3 50 км 6/0
[Ac trans Ci fib]
+12.4 +2.8 52 +11 +11 1012.2 994.7
18 13.06 Ю 4 50 км 10/0
[Cs]
+12.3 +2.7 52 +11 +11 1013.5 996.0
21 13.06 ЮВ 5
{10}
н/о н/о +16.4 +2.6 40 +16 +16 1011.9 994.7 +11.0
00 14.06 Ю 6 50 км 6 баллов +20.5 +1.4 28 +20 +22 1011.7 994.7
03 14.06 Ю 3
{10}
50 км 3/0
[Ci fib]
+23.2 -0.3 21 +22 +30 комфорт 1011.5 994.7
06 14.06 Ю 4 50 км ясно +24.0 -2.6 17 +22 +27 комфорт 1010.1 993.3
09 14.06 Ю 3 50 км ясно +22.7 -1.4 20 +22 +22 комфорт 1011.6 994.7 +24.2
12 14.06 С 1 50 км ясно +9.8 +7.1 83 +9 +9 1012.3 994.7
15 14.06 В 1 50 км ясно +4.4 +3.7 95 +3 +3 1014.0 996.0
18 14.06 В 1 н/о н/о +9.0 +4.8 75 +9 +9 1015.0 997.3
21 14.06 ЮВ 1 50 км ясно +16.8 +4.7 45 +18 +24 1014.8 997.6 +3.3
00 15.06 С 1 50 км 1/0
[Ci fib]
+23.0 +4.5 30 +23 +35 комфорт 1015.6 998.7
03 15.06 СЗ 1 50 км 6/3 1000 м
[Cu med, cong Cc]
+25.8 +1.8 21 +24 +30 комфорт 1014.0 997.3
06 15.06 З 2
{13}
50 км 8/6 1000 м
[Cb cap Ci fib]
+25.6 +1.0 20 +24 +26 комфорт 1012.7 996.0
09 15.06 ЮВ 1 50 км 9/5 1000 м
[Cb cap Ci fib]
+25.0 +5.2 28 +25 +25 комфорт 1012.7 996.0 +27.5
12 15.06 ЮВ 2 50 км 6/4 1000 м
[Sc diur, vesp Ci fib]
+14.0 +9.4 74 +14 +14 1014.7 997.3
15 15.06 В 1 50 км 3/3 1000 м
[Sc diur, vesp]
+13.7 +2.0 45 +14 +14 1016.2 998.7
18 15.06 штиль 0 50 км 8/5 1000 м
[Cb cap Ac trans]
+8.9 +5.5 79 +8 +9 1016.5 998.7
21 15.06 ЮВ 3 50 км 5/3 1000 м
[Cb cap Ac trans]
+19.6 +2.7 33 +20 +23 1015.6 998.5 +7.7
00 16.06 ЮВ 3 50 км 4/1 1000 м
[Cb cap Ac trans]
+23.1 +3.6 28 +23 +29 комфорт 1015.6 998.7
03 16.06 ЮВ 2 50 км 2 балла +25.5 +2.8 23 +24 +34 комфорт 1014.0 997.3
06 16.06 СВ 2 50 км 5 баллов +25.9 +1.2 20 +24 +28 комфорт 1012.7 996.0
09 16.06 СВ 2
{12}
50 км 8/8 1000 м
[Cb cap]
+22.1 +3.7 30 +22 +22 комфорт 1012.9 996.0 +26.8
12 16.06 Ю 1 50 км 7 баллов +18.1 +2.0 34 +19 +19 1014.5 997.3
15 16.06 Ю 2 50 км 4 балла +13.8 +1.4 43 +14 +14 1016.2 998.7

 

Местоположение метеостанции Балыгычан (Магаданская область, Россия): широта 63.91 долгота 154.10 высота над уровнем моря 146 м.

В архиве по умолчанию представлена погода в Балыгычане за последнюю неделю. Архивные данные за месяц целиком и за предыдущие месяцы, начиная с января 2011 года, Вы можете получить, выбрав интересующий диапазон дат из раскрывающегося списка и нажав кнопку "Ввод!".


*Определитесь, кто Вы:
робот инопланетянин человек

Внимание! Время в таблицах - всемирное. Для получения местного времени необходимо прибавить поправку, которая равна 11 ч.

Смотрите также архив погоды в соседних городах и на ближайших метеорологических станциях:

Погода в Коркодоне (Магаданская область, Россия) (94 км)
Погода в Сеймчане (Магаданская область, Россия) (140 км)
Погода в Омсукчане (Магаданская область, Россия) (177 км)
Погода в Среднекане (Магаданская область, Россия) (186 км)
Погода в Совхозе Эльген (Магаданская область, Россия) (214 км)
Погода в Лабазной (Магаданская область, Россия) (228 км)
Погода в Зырянке (Якутия, Россия) (253 км)
Погода в Усть-Бохапче (Магаданская область, Россия) (268 км)
Погода в Ягодной (Магаданская область, Россия) (274 км)
Погода на Озере Джека Лондона (Магаданская область, Россия) (309 км)

Пояснения к столбцам:

Ветер - указаны скорость ветра в м/с - средняя за 10 мин, порывы в срок и между сроками (в фигурных скобках) и направление, откуда дует ветер: С - северный, СВ - северо-восточный, В - восточный, ЮВ - юго-восточный, Ю - южный, ЮЗ - юго-западный, З - западный, СЗ - северо-западный.
Видимость - горизонтальная дальность видимости в метрах или километрах. При видимости от 1 до 10 км при отсутствии осадков обычно наблюдается дымка, при ухудшении видимости до 1 км и менее - туман. В сухую погоду видимость может ухудшаться дымом, пылью или мглою.
Явления - указаны атмосферные явления, наблюдавшиеся в срок или в последний час перед сроком; фигурными скобками обозначены явления, наблюдавшиеся между сроками (за 1-3 часа до срока); квадратными скобками обозначены град или гололедные отложения с указанием их диаметра в мм.
Облачность - указаны через наклонную черту общая и нижняя облачность в баллах и высота нижней границы облаков в метрах; квадратными скобками обозначены формы облаков: Ci - перистые, Cs - перисто-слоистые, Cc - перисто-кучевые, Ac - высококучевые, As - высокослоистые, Sc - слоисто-кучевые, Ns - слоисто-дождевые, Cu - кучевые, Cb - кучево-дождевые. Подробнее классификацию облаков см. в Атласе облаков (PDF).
T - Температура воздуха - температура, измеренная на высоте 2 м над землей.
Td - Температура точки росы - температура, при понижении до которой содержащийся в воздухе водяной пар достигнет насыщения.
f - Относительная влажность воздуха - влажноcть воздуха, измеренная на высоте 2 м над землей.
Te - Эффективная температура - температура, которую ощущает одетый по сезону человек в тени. Характеристика душности погоды. При расчете учитывается влияние влажности воздуха и скорости ветра на теплоощущения человека.
Tes - Эффективная температура на солнце - температура, которую ощущает человек, с поправкой на солнечный нагрев. Характеристика знойности погоды. Зависит от высоты солнца над горизонтом, облачности и скорости ветра. Ночью, в пасмурную погоду, а также при ветре 12 м/с и более поправка равна нулю.
P - Атмосферное давление - приведенное к уровню моря атмосферное давление.
Po - Атмосферное давление - измеренное на уровне метеостанции атмосферное давление.
Tmin - Минимальная температура - минимум температуры воздуха на высоте 2 м над землей.
Tmax - Максимальная температура - максимум температуры воздуха на высоте 2 м над землей.
R - Количество осадков - Количество выпавших осадков за период времени, мм. При наведении курсора мыши на число - период времени, за который выпало указанное количество осадков.
R24 - Количество осадков - Количество выпавших осадков за 24 часа, мм.
S - Снежный покров - Высота снежного покрова, см. При наведении курсора мыши на число - состояние снежного покрова и степень покрытия местности в баллах.